CAPE
0 0 0 0 0 0 0 0 0 0 0 0 0 12 29 20 29 2 0 1 0 0 0 0 0 0 0 0 76 464 537 995 1611 2764 2686 2511 1688 2012 2128 1744 1868 1538 1244 1078
0 0 0 0 0 0 0 0 0 0 1 48 48 45 31 69 17 8 15 0 2 0 1 3 0 0 4 66 569 504 357 1339 1311 2005 2602 2603 2312 1577 1956 1635 1484 1543 1345 1113
0 0 0 0 0 0 0 0 0 0 0 2 25 50 42 40 52 15 69 38 39 36 25 64 13 31 54 81 221 616 748 754 1376 1446 2075 2449 2121 1518 1044 1213 1351 1726 1373 1061
0 0 0 0 0 0 0 0 0 0 1 1 7 38 70 72 27 25 57 106 47 38 47 23 79 112 111 101 186 650 794 1495 1164 1165 650 2056 2142 1709 1286 976 1162 1475 1243 833
0 0 0 0 0 0 0 0 0 0 0 4 10 52 27 64 70 158 158 81 28 23 54 26 12 42 112 89 72 569 854 1049 1705 2260 2005 2166 2523 1839 1613 1200 850 1394 1108 891
0 0 0 0 0 0 0 0 9 27 77 162 82 166 128 106 90 48 15 91 47 49 15 5 26 112 106 119 93 273 1278 1210 1977 2052 2243 2196 2595 2433 1420 1044 907 1223 727 1269
0 0 0 0 0 0 0 3 31 1 36 127 48 18 40 25 21 155 105 44 51 71 61 19 3 0 113 90 194 266 542 1189 1658 2184 2094 1924 2496 2587 2093 1101 650 794 500 1223
0 0 0 0 0 0 0 0 65 13 24 6 27 2 84 176 136 31 0 5 10 39 22 79 61 115 25 169 443 414 559 1183 1334 1600 2106 2019 2513 2272 2184 1172 839 361 341 1215
0 0 0 0 0 0 0 0 29 119 93 96 32 86 139 223 20 4 2 2 68 157 182 146 155 232 420 520 605 652 927 956 934 1244 2220 2104 1934 2130 1914 1075 735 521 687 50
0 0 0 0 0 0 8 7 72 250 147 47 46 73 25 0 0 14 45 129 39 58 118 126 119 238 479 555 555 952 1257 1021 955 1094 2193 1972 2098 1999 2063 1970 694 20 2 6
0 1 0 0 0 1 0 8 92 131 149 55 31 100 260 127 0 26 72 43 81 130 132 88 20 21 230 126 330 724 1142 1126 1056 872 907 2062 1970 2184 2080 1841 1026 87 5 3
0 4 9 0 0 0 0 7 89 268 131 330 217 118 161 22 72 8 49 1 18 55 115 50 3 59 291 172 307 532 998 956 1044 995 812 2163 2315 2028 1960 1438 475 22 6 10
4 15 18 3 0 0 3 0 5 260 283 145 265 22 167 115 14 15 10 2 6 57 24 8 1 0 102 279 394 453 734 867 933 925 1067 2247 2557 1875 1679 541 56 7 4 3
8 15 8 22 14 23 16 26 18 147 103 75 106 33 118 120 35 1 0 1 6 13 23 14 0 0 12 264 370 551 693 978 995 1105 1013 1718 1615 787 404 144 36 2 1 1
43 13 23 27 19 30 25 21 19 55 71 88 29 122 38 2 18 4 5 15 32 34 26 12 1 0 0 18 244 255 472 1125 1168 1043 1262 1211 472 716 194 55 2 4 4 10
143 26 53 26 20 23 17 21 67 48 121 82 15 12 7 19 21 14 8 1 16 8 8 3 0 8 3 0 31 175 430 882 1292 1142 1535 1316 1146 454 127 25 0 0 1 6
34 87 62 10 5 16 66 7 81 115 56 32 32 8 0 12 10 15 14 17 5 0 1 2 1 10 0 0 0 252 414 716 1172 1655 1412 396 600 485 146 13 2 0 0 1
18 7 125 17 30 19 90 126 180 69 125 43 20 38 7 7 8 17 7 7 2 1 18 15 11 0 0 0 0 0 725 567 929 1594 1069 241 16 2 1 3 2 0 0 2
163 11 43 35 74 0 0 103 15 19 11 30 18 2 1 1 16 1 1 26 22 5 2 0 0 0 0 0 0 0 230 311 1071 1323 877 149 4 2 4 6 3 0 0 0
135 21 2 18 54 48 145 86 8 2 31 4 5 16 12 25 26 1 19 15 15 17 5 15 10 21 2 1 0 0 2 116 819 535 40 4 2 2 4 5 2 2 2 0
166 143 201 315 138 130 47 42 0 11 51 18 33 28 28 20 29 20 14 18 19 6 3 5 12 15 12 14 5 0 0 305 266 5 3 4 7 4 5 2 1 2 1 0
193 164 226 101 85 28 203 35 62 46 63 20 24 18 16 13 8 10 11 8 7 7 11 14 23 13 19 20 10 0 18 398 5 1 2 4 10 12 4 1 3 0 0 0
92 205 177 69 57 236 176 176 167 50 9 26 20 8 9 10 8 9 7 8 2 0 3 5 12 13 13 12 2 5 109 6 4 3 3 2 4 8 1 1 1 0 0 0
48 108 192 147 22 88 151 97 44 8 24 19 5 13 11 11 11 11 16 4 5 12 0 2 7 6 9 9 17 39 1 0 1 2 1 4 3 1 1 2 0 0 0 0
180 126 67 101 91 7 3 8 16 23 23 6 7 7 10 16 14 9 10 2 3 1 0 3 13 4 6 34 15 1 1 0 1 2 8 2 1 0 0 0 0 0 0 0
241 371 10 7 77 18 4 38 7 19 9 7 8 5 20 15 8 11 2 2 3 17 13 25 22 0 43 6 2 2 1 0 0 2 2 1 0 0 0 0 0 0 0 0
CIN
0 0 0 0 0 0 0 0 0 0 0 0 0 0 -3 -5 0 -1 0 0 0 -1 0 0 0 0 0 0 -34 -48 -31 -29 -14 -7 0 0 -22 -21 -48 -31 -58 -58 -38 -39
0 0 0 0 0 0 0 0 0 0 0 -1 -1 -3 -23 -11 -11 -13 -9 0 -11 0 -1 -2 0 0 -14 -15 -16 -54 -45 -31 -21 -6 -1 -2 -12 -43 -39 -49 -32 -58 -37 -30
0 0 0 0 0 0 0 0 0 0 0 -1 -1 -2 -3 -14 -13 -84 -3 -12 -29 -32 -11 -4 -6 -57 -54 -48 -16 -34 -48 -57 -21 -17 -11 -3 -13 -10 -33 -42 -27 -35 -29 -30
0 0 0 0 0 0 0 0 0 0 0 0 -1 0 -1 -3 -6 -70 -89 -12 -40 -44 -33 -28 -5 -14 -54 -46 -21 -25 -42 -36 -36 -37 -42 -7 -1 -3 -56 -43 -41 -31 -34 -69
0 0 0 0 0 0 0 0 0 0 0 0 -49 0 -24 -3 -2 -3 -3 -8 -91 -111 -86 -68 -66 -37 -19 -73 -66 -26 -55 -43 -22 -7 -6 -5 0 -6 -33 -50 -13 -18 -44 -53
0 0 0 0 0 0 0 0 0 -3 -11 -1 -7 -7 -11 -27 -57 -47 -221 -16 -15 -104 -179 -223 -171 -25 -17 -22 -63 -26 -22 -31 -16 -10 -6 -2 0 0 -19 -24 -24 -11 -66 -10
0 0 0 0 0 0 0 0 -5 0 -17 -7 -50 -23 -47 -74 -81 -85 -89 -18 -51 -98 -117 -186 -199 0 -15 -20 -8 -14 -29 -36 -22 -7 -6 -6 -2 0 -3 -48 -50 -36 -50 -8
0 0 0 0 0 0 0 0 0 0 0 -35 -6 -1 -112 -24 -58 -31 0 -77 -92 -97 -141 -46 -60 -39 -79 -5 -5 -5 -10 -34 -35 -17 -13 -6 -4 -1 -2 -24 -44 -182 -110 -31
0 0 0 0 0 0 0 0 -1 -1 0 -2 -16 -18 -15 -57 -129 -4 -2 -11 -12 -12 -7 -6 -24 -12 -15 -27 -34 -37 -26 -55 -8 -5 -12 -11 -14 -4 -5 -33 -22 -40 -11 -88
0 0 0 0 0 0 -1 -1 -1 -4 0 0 -1 -8 -64 0 0 -13 -15 -7 -21 -14 -2 -13 -24 -27 -8 -29 -19 -8 -12 -32 -35 -29 -10 -14 -11 -2 -1 -2 -16 -2 -27 -151
0 0 0 0 0 0 0 -4 -1 -1 -3 -1 0 -1 -2 -16 0 -27 -14 -17 -22 -34 -4 -68 -64 -34 -38 -52 -2 -17 -5 -8 -17 -41 -52 -11 -11 -4 -1 0 -3 -207 -134 0
0 0 0 0 0 0 0 0 -1 -4 0 -1 0 -2 -23 -2 -11 -183 -18 -23 -10 -56 -21 -20 -35 -35 -6 -16 -8 -3 -19 -7 -4 -6 -36 -12 -8 -5 -3 -4 -17 -287 0 0
-2 -2 0 0 0 0 -35 0 -15 0 0 -1 0 0 -1 0 -6 -4 -11 -64 -19 -19 -12 -9 -30 0 -43 -20 -21 -9 -5 -4 -3 -6 -13 -9 -8 -5 -1 -50 -175 -247 0 0
-19 -22 0 0 0 0 0 0 -1 -1 -11 0 -1 0 0 -2 -6 -1 0 -4 -18 -8 -26 -23 0 0 -98 -6 -14 -10 -9 -5 -3 -6 -22 -34 -65 -127 -148 -186 -195 0 0 0
-18 -1 0 0 0 0 -1 0 0 -1 0 -3 -10 0 -21 -12 -1 -11 -25 -9 -3 0 -1 -3 0 0 -1 -69 -38 -42 -40 -3 -2 -9 -13 -70 -110 -109 -190 -260 0 0 0 0
-2 -4 0 0 0 0 -1 -2 -8 -6 0 -3 -23 -12 0 -2 -1 0 0 -1 0 -1 -2 -2 0 -2 -4 0 -127 -53 -27 -30 -1 -18 -9 -42 -20 -132 -174 -259 0 0 0 0
-18 -4 -2 0 0 -1 -6 -4 -1 -7 -25 -9 -1 -1 -2 0 -1 -1 -11 0 -1 0 0 0 0 -1 0 0 0 -36 -7 -23 -16 -7 -10 -152 -182 -107 -185 -49 0 0 0 0
-36 -15 0 0 0 0 -22 -7 -1 -30 -3 -10 -27 -10 -10 -1 -1 0 -1 -5 -5 0 0 -5 -10 -18 0 0 0 -96 -19 -22 -33 -15 -2 -206 -218 0 0 0 0 0 0 0
-5 -2 -1 0 0 0 -3 -19 0 0 0 -1 -11 -4 -2 -10 -2 0 0 -1 -4 -12 -15 0 0 0 0 0 0 -1 -36 -87 -40 -26 -7 -211 0 0 0 0 0 0 0 0
-22 -51 0 -9 0 0 -1 -2 0 0 0 0 -6 0 0 0 0 0 0 -4 -4 0 0 0 0 0 0 0 0 -7 -50 -141 -24 -65 -267 0 0 0 0 0 0 0 0 0
0 -1 -1 -1 0 -4 -10 -2 0 -3 0 0 -1 0 0 0 0 0 0 0 0 -2 -4 0 0 0 0 0 -4 0 -7 -26 -96 -156 0 0 0 0 0 0 -1 -1 -1 0
0 0 0 0 0 0 -8 -19 0 -2 0 -1 0 0 0 0 0 0 0 0 0 0 0 0 0 0 0 0 0 0 -50 -5 -13 0 0 0 0 0 0 0 0 -1 0 0
0 0 0 -1 0 -3 -1 -1 -1 -9 -4 0 0 0 0 0 0 0 0 0 -1 -1 0 0 0 0 0 -1 -2 -97 -17 -3 0 0 0 0 0 0 0 0 -1 0 0 0
-4 -1 0 0 -50 0 0 0 -3 -4 0 0 0 0 0 0 0 0 0 0 0 0 0 0 0 0 -1 -1 -22 -26 0 0 0 0 0 0 0 0 0 -1 0 0 0 0
-1 -1 0 -1 0 -12 -13 -14 -2 0 0 0 0 0 0 0 0 0 0 0 0 0 0 0 0 -3 -3 -2 -20 0 0 -1 0 0 0 0 -1 0 0 0 0 0 0 0
-2 -6 -4 -4 0 -4 -9 0 -1 0 0 0 0 0 0 0 0 0 0 0 0 0 0 0 0 -1 -4 -17 0 0 -1 0 -1 0 0 0 0 0 0 0 0 0 0 0
Wind_Speed
10 12 13 18 17 19 20 23 25 25 24 24 25 25 22 23 21 19 20 19 17 16 16 14 13 12 10 8 8 8 7 4 6 4 6 6 7 7 7 4 11 13 9 8
13 14 14 20 19 20 22 24 25 25 25 23 21 23 23 26 24 23 22 22 20 18 16 14 13 10 8 6 6 8 7 6 6 4 7 7 9 11 9 4 8 12 11 9
15 20 16 12 17 20 20 21 22 26 25 23 23 24 20 26 18 14 27 22 18 15 13 12 14 12 9 9 6 8 9 7 7 8 4 7 7 9 12 5 8 10 10 9
12 10 16 18 19 18 21 20 21 23 21 19 21 18 22 20 20 16 26 16 14 9 11 9 9 11 10 9 8 8 9 10 9 9 8 8 8 10 9 7 7 9 10 11
18 20 18 19 14 14 19 16 17 21 21 22 22 15 18 21 18 11 9 8 5 6 8 5 6 9 9 11 8 7 11 10 9 8 10 7 8 9 9 8 11 12 12 13
20 18 18 15 11 15 19 20 20 20 18 18 20 14 17 3 9 12 8 15 5 4 4 8 9 6 7 9 11 8 7 9 9 8 8 10 10 10 10 12 10 12 11 9
17 20 13 5 12 14 17 17 12 13 12 8 10 10 9 14 14 12 13 8 6 2 4 2 4 5 5 8 7 8 9 10 9 9 9 9 11 11 14 13 9 14 10 8
14 14 15 14 18 23 21 15 12 22 17 19 16 10 11 12 24 9 5 3 5 3 3 4 5 8 6 3 5 6 5 8 8 8 10 9 8 8 10 14 10 10 10 11
13 9 26 22 17 9 13 12 17 11 15 16 16 22 14 19 21 8 3 4 5 8 8 5 7 8 10 12 11 12 10 10 4 3 8 7 8 9 10 12 8 6 4 13
10 23 14 17 18 13 18 17 12 5 7 11 12 7 3 12 13 17 13 15 3 2 4 10 8 12 10 6 7 6 7 6 8 10 5 7 7 9 11 9 9 10 11 14
14 14 18 19 16 21 17 10 12 10 7 7 13 5 6 5 6 14 14 16 22 20 9 8 6 3 10 12 6 7 7 4 5 8 8 7 5 8 9 8 10 16 16 16
13 9 17 24 27 26 22 18 18 7 11 10 7 10 17 10 8 12 16 15 17 16 18 9 3 9 9 10 13 8 6 8 4 6 8 6 5 5 7 7 8 16 18 15
9 4 12 17 10 14 18 20 13 16 10 11 14 11 18 14 15 15 11 15 17 14 13 11 10 9 9 9 11 12 8 9 7 7 8 7 5 1 5 5 11 6 17 17
5 6 16 15 21 21 24 25 25 22 11 15 19 24 20 19 17 19 5 10 17 13 13 7 9 10 10 8 9 12 11 9 6 9 10 5 10 10 11 12 9 6 16 15
9 10 18 19 23 22 27 30 27 24 26 22 24 23 22 20 14 14 14 13 13 13 12 7 7 9 9 11 9 12 14 10 5 9 7 9 11 17 15 19 16 9 11 3
8 4 12 17 20 25 28 28 30 26 25 20 17 19 11 11 8 10 14 15 13 11 14 13 12 13 8 11 13 11 14 10 5 9 4 11 11 12 13 15 17 20 14 7
14 4 8 24 20 22 21 20 13 17 11 11 14 12 17 20 19 15 17 14 13 15 16 14 14 10 8 11 13 16 12 11 9 2 11 9 9 13 15 15 17 19 21 10
6 5 8 10 17 13 13 14 9 10 15 15 18 18 17 20 19 17 17 18 18 17 18 11 10 9 8 11 13 17 12 8 7 6 15 12 16 18 18 20 20 21 21 10
19 11 4 6 9 16 18 8 11 13 16 16 14 19 22 20 20 22 20 17 12 12 10 9 9 8 11 13 14 12 12 13 6 9 14 14 17 18 19 20 18 19 22 11
6 10 3 4 5 7 9 6 21 17 15 15 20 22 23 20 15 16 15 16 17 16 13 12 13 11 13 13 13 10 13 14 13 12 15 16 16 19 20 19 20 16 18 14
9 9 10 11 10 9 5 16 14 8 11 20 15 18 22 18 17 25 22 23 21 20 21 20 17 15 14 13 11 10 10 11 14 16 17 18 18 20 21 21 18 18 16 13
13 8 9 7 5 7 22 23 10 8 15 16 19 19 18 19 24 23 24 24 23 22 20 19 15 14 11 11 10 9 9 12 17 19 19 19 18 15 17 20 16 19 14 13
5 6 5 5 8 20 19 16 15 13 15 19 18 14 21 22 24 24 25 27 24 23 21 19 15 13 12 11 12 6 8 19 19 21 21 19 19 17 18 21 16 15 12 9
9 13 7 15 13 18 19 16 16 18 16 13 16 19 20 23 24 24 20 21 19 15 17 18 16 13 12 13 10 10 15 20 21 22 20 18 19 17 14 12 12 11 10 7
13 15 12 18 18 16 14 16 17 16 13 17 18 19 20 20 19 19 17 19 16 4 14 19 17 14 13 12 15 17 20 22 22 22 19 19 16 17 15 10 7 9 6 8
10 3 4 4 15 9 10 15 15 16 17 18 20 19 16 10 16 16 12 15 10 10 15 17 17 14 14 18 20 20 21 24 23 21 16 15 14 12 11 13 16 19 18 25
Wind_Direction
310 308 288 284 280 284 300 300 296 294 297 289 279 280 308 300 279 263 261 263 257 252 253 236 236 230 216 212 211 159 165 208 209 211 230 246 224 236 262 248 154 162 171 192
284 283 314 329 316 306 304 298 291 290 286 283 292 285 277 271 278 271 263 259 254 248 235 231 223 220 202 212 195 155 162 198 227 229 217 225 226 217 224 236 147 161 171 185
313 296 306 312 299 302 299 296 297 298 304 297 292 284 296 300 329 273 248 243 243 250 248 240 208 207 195 195 215 167 173 191 218 232 218 229 239 243 234 231 156 167 169 175
295 291 326 314 301 301 300 317 315 303 297 290 302 297 277 271 249 202 274 218 225 244 228 236 250 200 190 192 191 185 179 179 202 211 235 212 223 221 221 217 201 165 171 185
287 302 302 298 315 330 302 298 295 293 287 281 271 264 271 276 290 301 218 83 17 300 308 263 253 226 203 185 206 203 177 193 190 197 215 223 226 244 226 205 204 184 179 198
272 284 287 296 323 303 283 282 289 290 285 265 280 335 282 295 331 38 32 251 176 133 34 1 320 290 218 200 192 204 182 187 184 200 193 222 230 235 232 223 204 195 173 192
307 297 319 317 291 295 309 314 308 299 281 310 43 340 257 285 218 190 199 324 7 78 35 265 276 227 262 219 245 202 199 184 186 189 194 228 230 233 240 216 188 223 163 182
295 309 318 348 321 301 292 275 277 291 293 295 303 263 255 272 197 180 50 339 279 257 130 336 35 9 348 262 236 234 244 185 184 198 187 210 241 224 238 228 205 237 178 149
318 278 323 305 298 319 320 311 297 283 279 273 269 260 350 11 350 74 157 336 50 50 46 55 39 28 19 17 3 2 4 16 322 268 185 195 243 233 238 233 200 209 167 121
295 296 295 303 301 260 254 270 298 268 287 290 306 337 292 27 8 332 355 330 20 112 61 49 22 10 10 7 347 325 329 356 327 315 243 193 224 238 248 238 185 167 121 129
310 288 294 306 291 292 303 290 264 284 273 273 292 299 130 136 216 288 300 1 355 350 118 130 252 310 323 333 318 306 301 243 259 282 292 203 225 226 242 242 157 138 127 127
299 299 292 299 291 273 262 272 313 286 276 271 275 263 272 360 16 6 321 336 331 329 337 344 8 2 350 324 314 312 336 320 290 279 268 216 202 258 242 236 129 143 137 132
315 258 301 308 287 9 328 316 298 303 314 272 280 274 309 322 305 290 292 321 317 309 304 331 342 344 321 312 314 312 307 302 318 306 281 218 181 242 325 110 111 166 127 132
220 245 250 263 281 300 298 300 299 292 283 279 269 289 286 288 307 317 276 265 262 273 286 283 317 308 288 290 301 319 303 300 315 303 286 204 97 93 85 99 99 127 119 140
199 242 248 258 273 277 280 279 275 272 266 261 280 297 313 296 312 312 306 300 315 296 279 276 273 282 314 310 311 305 303 282 287 281 286 130 127 107 96 93 84 76 107 181
311 292 285 283 279 286 285 282 275 264 266 261 284 262 333 306 277 281 294 298 291 282 286 299 300 295 309 302 300 286 289 304 280 288 104 100 129 118 107 100 108 91 49 92
271 226 272 274 290 298 290 288 282 298 255 249 305 329 325 307 296 291 292 293 306 298 291 290 279 287 304 293 306 305 281 292 291 19 92 107 116 112 112 106 95 97 85 36
217 177 239 274 289 266 258 16 359 347 311 333 320 326 5 344 326 312 304 299 290 282 277 296 308 295 297 296 297 297 309 272 286 111 116 108 102 95 96 93 90 92 85 82
215 196 187 232 229 280 286 36 359 335 304 305 357 344 319 315 304 287 288 286 291 309 309 299 303 295 282 287 288 298 297 301 115 129 127 119 112 106 101 99 102 92 95 92
99 163 210 265 275 288 342 34 328 309 294 8 343 325 320 318 289 288 305 306 296 283 268 269 271 267 270 275 270 288 292 309 133 132 119 112 108 106 101 101 94 93 96 92
328 301 247 266 264 268 100 315 349 315 332 326 309 308 305 294 285 298 303 290 283 277 270 264 256 253 254 254 248 265 281 272 129 119 115 109 108 108 107 100 96 98 93 97
309 299 298 303 282 279 359 339 349 293 310 324 309 311 298 296 291 289 284 278 271 261 254 246 237 238 235 237 234 244 258 143 124 115 111 110 116 114 110 109 107 104 94 97
309 315 284 261 281 311 303 323 340 349 313 311 309 316 302 294 291 289 286 282 272 249 232 228 217 225 215 210 218 183 185 126 120 113 110 111 109 108 108 111 116 105 116 115
304 312 286 296 283 295 306 326 330 324 315 316 317 303 296 293 293 293 297 290 283 263 202 194 193 198 196 193 185 157 122 118 116 110 112 114 108 103 104 107 109 109 99 91
288 297 279 280 290 333 310 323 308 315 322 320 304 298 295 295 306 307 306 312 316 132 152 160 168 181 180 175 134 127 123 119 114 113 115 111 107 101 91 74 85 92 81 165
273 267 280 268 309 304 302 306 333 325 324 308 304 305 309 314 312 322 327 328 14 98 127 144 154 164 143 133 127 125 128 121 119 117 111 113 107 102 102 95 79 60 82 71